Airfield :







YOU CAN JOIN US ON...

 
LOGIN :

Register | Disclaimer

   EN    FR    IT 

 









Legend :    VFR   Marginal VFR   IFR   Intensive IFR   Very Intensive IFR
Visi :
Ceiling :
>= 8 km
>= 3000ft
5 to 8 km
1000 to 3000 ft
1500m to 5 km
500 to 1000 ft
800 to 1500m
200 to 500 ft
< 800m
< 200 ft
Symbols :   Thunderstorms  Fog  Heavy snow  Heavy precipitations  Wind > 20 kt






- Airport Elevation : 20 ft
- IATA code : BON


TNCB - Flamingo

CURRENT METAR :
  • 190755Z AUTO 09012KT 9999 FEW017/// 28/24 Q1009

EXPIRED METARs :
  • 190655Z AUTO 10011KT 9999 NSC 28/24 Q1009
  • 190555Z AUTO 10010KT 9999 NSC 28/24 Q1009
  • 190455Z AUTO 10010KT 9999 FEW012/// SCT016/// 29/25 Q1010
  • 190355Z AUTO 10010KT 070V130 9999 FEW016/// 29/25 Q1010

TAF TAF TNCB
Valid from the 19 at 06:00 until the 20 at 12:00 UTC


190438Z 1906/2012 09015KT 9999 SCT018
TNCF FIR / North America



MET'MAP, your aeronautical weather chart ! - Copyright ORBIFLY December 2007 - Disclaimer

ORBIFLY MET'MAP TEAM :

Programming & Development : Alexandra Zaïnal
Original concept : Baudouin d'Aumeries
Technical & hardware support : Manuel Goepfert
Assistance : Marc-Olivier Méhu




SOURCES & CREDITS :

   NOAA